Location: Lucerne Valley
(34.4439°N, 116.9669°E)
Time: 15:02:25
(UTC-07:00)

ISS - Pass Details

Date: 16 October 2017
Orbit: 401 x 408 km, 51.6° (Epoch: 20 October)

Event Time Altitude Azimuth Distance (km) Brightness Sun altitude
Rises 03:58:58 0° 306° (NW) 2,319 1.0 -17.7°
Reaches altitude 10° 04:01:07 10° 298° (WNW) 1,458 -0.1 -18.2°
Maximum altitude 04:04:12 40° 227° (SW) 614 -2.6 -18.8°
Enters shadow 04:05:38 25° 174° (S) 869 -2.3 -19.1°
